CDT,Max TemperatureF,Mean TemperatureF,Min TemperatureF,Max Dew PointF,MeanDew PointF,Min DewpointF,Max Humidity, Mean Humidity, Min Humidity, Max Sea Level PressureIn, Mean Sea Level PressureIn, Min Sea Level PressureIn, Max VisibilityMiles, Mean VisibilityMiles, Min VisibilityMiles, Max Wind SpeedMPH, Mean Wind SpeedMPH, Max Gust SpeedMPH,PrecipitationIn, CloudCover, Events, WindDirDegrees
2014-3-1,81,64,46,62,54,45,100,70,39,29.97,29.90,29.82,10,6,0,24,9,29,0.00,4,Fog,132
2014-3-2,71,45,19,62,23,11,85,76,67,30.37,30.15,29.92,10,6,0,31,21,37,0.09,8,Fog-Rain-Snow-Thunderstorm,342
2014-3-3,34,25,16,17,12,7,67,57,47,30.49,30.39,30.32,10,10,9,28,14,34,T,7,Snow,358
2014-3-4,50,38,25,30,23,16,70,55,39,30.30,30.15,30.03,10,10,10,16,5,21,0.00,5,,117
2014-3-5,56,44,31,37,31,28,89,64,38,30.18,30.07,29.99,10,9,7,21,7,25,T,7,,104
2014-3-6,56,49,41,37,36,33,82,65,47,30.26,30.16,30.05,10,9,6,18,10,22,0.00,5,,357
2014-3-7,67,51,35,45,38,33,92,62,32,30.03,29.92,29.81,10,8,4,26,13,32,0.00,5,,169
2014-3-8,56,48,39,51,40,32,83,73,63,30.31,30.10,29.85,10,8,5,24,14,29,0.01,7,Rain,312
2014-3-9,63,51,38,40,36,30,76,60,43,30.35,30.26,30.17,10,9,7,18,7,22,0.00,5,,348
2014-3-10,78,60,41,54,43,37,93,59,24,30.17,30.02,29.83,10,8,4,20,10,24,0.00,1,,181
2014-3-11,86,71,55,56,52,35,93,57,21,29.81,29.65,29.48,10,10,6,37,17,44,0.00,2,,193
2014-3-12,63,54,45,35,25,17,60,40,19,30.27,30.15,29.85,10,10,10,36,18,43,0.00,1,,350
2014-3-13,68,51,34,30,24,20,64,31,9,30.32,30.20,30.04,10,10,10,18,8,22,0.00,1,,198
2014-3-14,73,61,48,52,44,30,77,58,38,30.05,29.99,29.92,10,10,10,31,14,36,0.00,4,,179
2014-3-15,68,61,54,61,58,52,93,83,72,29.94,29.81,29.67,10,6,1,28,9,35,1.29,8,Rain-Thunderstorm,145
2014-3-16,56,49,42,52,39,31,93,76,58,30.07,29.93,29.75,10,10,8,36,21,43,T,7,,335
2014-3-17,61,48,35,31,27,23,70,47,23,30.05,29.90,29.70,10,10,10,18,10,23,0.00,3,,358
2014-3-18,82,67,51,46,36,26,50,33,16,29.86,29.63,29.53,10,9,4,33,20,39,0.00,4,,189
2014-3-19,66,56,45,34,31,27,53,40,27,30.21,30.12,29.90,10,10,6,23,12,27,0.00,6,,345
2014-3-20,72,56,40,34,31,28,65,43,20,30.22,30.12,29.99,10,10,10,15,7,19,0.00,1,,166
2014-3-21,82,68,53,58,48,31,73,56,38,29.98,29.87,29.77,10,10,10,29,15,37,0.00,6,,175
2014-3-22,67,59,51,58,47,40,78,62,46,30.10,29.98,29.89,10,10,9,22,12,25,T,8,,15
2014-3-23,58,51,43,41,31,25,64,50,36,30.37,30.25,30.13,10,10,10,30,16,38,0.00,6,,13
2014-3-24,67,53,38,39,34,26,64,51,37,30.25,30.14,30.02,10,10,10,13,4,16,0.00,3,,45
2014-3-25,64,53,42,39,27,21,63,43,23,30.40,30.27,30.15,10,10,10,23,10,29,0.00,0,,49
2014-3-26,62,53,44,50,38,28,72,59,46,30.19,30.05,29.89,10,10,10,30,16,38,0.04,7,Rain,151
2014-3-27,82,70,58,65,59,50,90,72,54,29.88,29.76,29.63,10,8,1,31,18,36,0.02,7,Rain,177
2014-3-28,80,67,54,65,59,40,93,69,45,30.06,29.79,29.70,10,8,5,25,14,32,T,5,Rain,192
2014-3-29,74,60,46,40,36,28,76,48,19,30.29,30.19,30.06,10,10,7,18,9,23,0.00,0,,11
2014-3-30,79,64,48,46,38,32,56,41,25,30.20,30.08,29.93,10,10,10,26,14,35,0.00,2,,160
2014-3-31,81,69,57,57,53,45,80,61,42,29.94,29.87,29.79,10,10,10,28,19,36,0.00,5,,175